Lapse_Rate
5.8 6.3 6.3 6.8 6.4 6.5 6.5 6.5 6.5 6.5 6.5 6.1 6.2 6.3 6.5 6.1 6.4 6.5 7.5 7.5 8.6 7.6 7.1 6.2 5.5 5.3 5.2 5.5 5.8 5.5 5.4 5.6 5.7 5.9 6.4 5.2 5.8 5.7 5.4 5.7 6.3 6.9 6.9 6.8 6.9 6.7 6.2 6.1 6.0
5.7 9.2 7.2 5.4 6.5 6.5 6.5 6.5 6.5 6.5 6.1 6.1 6.6 7.0 6.6 6.5 7.0 7.3 7.5 6.4 8.3 8.4 7.2 7.0 5.5 5.3 5.1 5.2 5.5 5.4 5.4 5.6 5.7 6.0 6.2 6.6 5.9 5.9 5.8 6.0 6.1 6.6 7.0 6.9 6.9 6.3 5.4 5.3 5.2
6.0 8.7 5.9 6.5 6.5 6.5 6.5 6.5 6.5 6.2 7.0 7.0 6.6 7.1 6.4 6.6 7.1 7.3 6.7 6.0 8.2 8.5 7.7 7.1 6.2 5.5 5.4 5.3 5.2 5.3 5.3 5.5 5.7 6.0 6.2 6.7 5.8 6.1 6.0 6.4 6.5 6.5 6.1 6.6 6.6 5.7 5.0 4.9 4.9
7.5 7.2 6.3 6.5 6.5 6.5 6.5 6.5 6.1 6.3 6.9 7.0 6.7 6.5 6.7 7.6 8.0 7.0 6.0 5.6 7.7 6.1 8.1 5.9 5.8 6.1 5.9 5.6 5.4 5.5 5.5 5.5 5.6 5.9 6.0 6.3 6.2 6.4 6.3 6.6 6.6 6.8 6.1 6.0 5.6 5.2 4.9 4.8 5.0
7.2 6.0 6.5 6.5 6.5 6.5 6.5 6.1 6.6 6.5 6.3 6.4 7.1 6.5 6.5 7.4 6.1 6.2 6.0 5.6 6.2 5.9 7.2 6.5 6.3 6.0 5.9 5.9 5.8 5.6 5.7 5.8 6.0 6.1 6.2 6.4 6.5 6.6 6.4 6.3 6.3 6.3 6.0 5.4 5.2 4.8 4.7 4.7 4.9
6.0 5.7 6.5 6.5 6.5 6.5 6.4 6.8 6.9 6.6 6.4 6.1 6.8 6.6 6.3 5.6 4.5 4.9 5.9 5.9 5.8 5.4 6.2 7.0 6.1 5.8 5.6 5.8 5.9 6.0 6.0 5.9 5.9 6.1 6.0 6.3 6.5 6.6 6.5 6.2 6.0 6.2 6.1 5.4 5.3 5.1 4.7 4.7 4.9
6.4 6.5 6.5 6.5 6.5 6.5 6.5 6.6 6.3 6.4 6.0 6.2 7.2 6.5 6.5 5.2 4.9 5.4 6.0 6.1 6.9 6.1 6.1 6.0 6.9 5.8 5.5 5.5 5.8 5.8 5.9 5.9 5.8 5.8 5.8 5.8 5.8 6.0 6.2 6.1 6.1 6.1 6.0 5.0 4.9 5.1 4.9 4.8 4.8
5.7 6.5 6.5 6.5 6.5 6.5 6.6 6.9 6.8 6.4 6.3 8.0 7.4 6.3 6.2 7.0 6.3 6.5 5.5 6.1 6.8 6.6 6.3 5.8 6.2 7.2 6.2 5.4 5.4 5.5 5.5 5.5 5.4 5.4 5.4 5.5 5.5 5.6 5.8 5.9 5.8 6.0 5.9 5.0 4.5 4.8 4.8 4.7 4.7
7.2 6.5 6.5 6.5 6.5 6.5 6.8 6.5 7.3 7.4 6.7 6.8 7.4 7.2 7.2 7.3 7.9 7.5 6.1 5.2 5.3 6.4 6.1 5.3 5.9 5.8 6.9 7.5 6.4 5.6 5.3 5.1 5.1 4.9 4.9 5.1 5.2 5.5 5.9 5.5 5.4 5.7 5.7 5.2 4.4 4.6 4.7 4.4 4.1
6.2 6.5 6.5 6.5 6.4 6.5 6.5 6.6 6.6 6.6 6.2 6.3 6.6 7.2 7.6 7.7 7.5 5.7 5.3 4.1 5.2 5.3 5.6 5.5 5.2 5.9 6.3 6.3 6.6 6.1 5.8 4.9 4.7 5.0 5.1 4.4 5.5 6.7 6.8 6.0 5.4 5.5 5.5 5.2 4.4 4.5 4.4 4.1 4.1
6.6 6.5 6.5 6.6 6.8 6.9 6.6 6.6 7.2 6.5 6.5 5.9 6.0 5.5 5.4 5.5 5.1 5.6 6.2 5.8 4.5 5.1 4.2 4.7 5.2 5.9 5.3 5.5 5.9 6.7 7.5 6.0 6.2 6.4 6.2 5.6 6.7 7.2 6.8 4.9 4.8 4.7 5.2 4.5 4.3 3.9 3.7 3.8 4.7
6.5 6.7 6.8 6.8 7.0 7.0 6.5 6.7 6.5 6.2 5.9 5.8 6.1 6.6 6.7 6.1 5.7 5.8 5.4 5.3 5.2 4.7 3.5 3.7 4.0 4.7 5.3 5.1 5.1 5.9 6.4 7.3 6.5 7.3 8.4 7.9 7.7 6.3 5.7 4.7 5.0 5.1 4.7 5.2 4.7 4.0 3.7 4.3 5.3
6.5 6.5 7.0 7.2 7.2 6.9 7.0 6.2 6.4 5.9 6.2 6.6 6.9 6.9 6.2 6.0 6.2 6.1 5.9 5.9 5.8 5.0 4.0 3.2 3.1 3.2 4.3 5.3 5.4 5.6 4.5 5.2 5.9 6.6 8.4 8.3 6.8 6.2 5.6 4.8 4.9 5.5 6.0 5.9 6.0 5.5 5.0 4.7 5.2
6.6 6.7 6.7 7.0 6.9 7.0 6.6 6.4 6.6 5.8 6.4 7.3 7.3 6.7 6.5 6.4 6.5 6.2 6.2 6.1 6.3 6.4 5.5 5.1 4.0 3.2 3.5 4.2 5.9 5.7 7.5 6.5 6.4 7.4 7.5 7.7 7.6 5.7 5.6 4.7 4.6 5.3 6.0 7.0 7.6 6.4 5.5 6.2 6.1
6.9 6.5 6.5 6.3 6.7 6.6 6.9 6.5 6.5 5.2 6.4 6.7 6.9 6.7 6.1 5.8 5.6 5.3 5.4 5.7 6.0 5.8 5.8 5.7 5.7 4.8 4.0 3.7 4.4 5.8 6.5 7.4 5.9 6.0 7.2 7.5 7.6 6.5 5.4 5.0 4.7 4.8 5.5 6.0 6.6 6.9 6.7 6.2 6.7
6.5 6.5 6.5 6.5 6.5 6.5 6.6 6.5 6.5 6.1 6.9 5.9 6.3 6.2 6.1 5.7 6.0 6.2 6.0 6.0 6.3 5.5 5.8 6.1 7.3 6.6 4.6 3.8 3.7 4.9 6.1 5.8 5.9 6.4 6.4 7.4 7.7 7.3 5.5 4.8 5.1 5.7 5.4 5.0 4.8 5.0 4.9 5.4 5.4
6.5 6.5 6.5 6.5 6.5 6.5 6.5 6.5 6.3 5.8 6.3 5.9 5.6 5.5 5.6 5.5 6.4 6.8 6.3 6.0 6.5 6.3 6.4 6.2 5.9 6.1 5.7 4.4 3.6 4.2 5.6 4.8 5.2 6.7 6.2 6.9 8.2 8.3 6.9 5.8 5.1 5.4 4.5 4.7 4.6 4.7 5.4 5.2 5.1
6.5 6.5 6.5 6.5 6.5 6.5 6.5 6.5 6.5 6.0 5.8 5.0 5.0 5.1 5.5 5.7 6.3 6.4 6.9 7.2 6.9 6.5 6.3 6.0 6.4 6.1 6.1 5.4 4.5 4.2 4.8 3.8 4.2 4.0 6.6 6.7 5.8 6.9 6.4 6.1 5.9 6.4 4.7 4.4 4.1 5.1 4.9 5.9 6.3
6.5 6.5 6.5 6.5 6.5 6.5 6.5 6.5 6.5 5.9 5.2 5.1 5.3 5.2 5.5 5.9 6.4 6.6 6.7 6.3 6.6 6.5 6.2 6.1 6.0 6.1 5.8 5.3 5.2 5.3 5.5 4.9 3.8 4.4 4.8 7.4 6.8 5.6 5.6 3.7 3.8 5.1 5.5 4.8 4.7 5.0 5.6 4.9 6.6
6.5 6.5 6.5 6.5 6.5 6.5 6.5 6.5 6.5 6.5 6.5 6.1 5.8 5.6 6.1 5.7 5.7 5.7 6.5 6.9 6.5 6.4 6.8 6.2 6.4 6.4 5.9 5.4 5.5 5.3 5.8 5.4 4.9 4.9 6.0 5.6 7.1 7.0 6.0 5.4 5.0 5.4 5.4 5.1 4.9 5.6 6.0 5.0 4.8
6.5 6.5 6.5 6.5 6.5 6.5 6.5 6.5 6.5 6.5 6.4 6.0 6.2 6.4 6.8 7.0 7.4 7.3 6.8 6.9 6.6 6.7 6.3 6.9 6.4 6.4 6.3 6.1 5.8 5.7 5.6 5.9 5.4 5.2 6.0 6.2 6.1 6.5 6.4 6.0 5.3 5.3 4.8 4.1 4.0 4.5 5.4 5.3 4.2
6.5 6.5 6.5 6.5 6.5 6.5 6.5 6.5 6.5 6.5 6.5 6.5 5.3 5.7 7.2 7.0 7.4 7.7 8.0 8.0 7.8 8.1 7.0 6.1 6.6 6.5 6.6 6.1 5.8 5.8 5.2 5.4 5.7 5.6 5.6 5.7 5.3 5.1 6.2 5.8 5.8 5.2 4.5 4.0 4.0 4.8 4.9 4.8 5.3
6.5 6.5 6.5 6.5 6.5 6.5 6.5 6.5 6.5 6.5 6.5 6.5 5.9 6.6 7.0 7.0 7.7 7.9 8.0 8.2 8.2 8.2 7.6 5.9 6.2 6.7 6.7 5.9 5.8 4.8 5.3 5.2 5.6 5.6 5.5 4.8 4.4 4.8 5.9 4.9 4.8 4.6 4.1 3.8 4.2 4.0 4.3 4.3 5.1
6.5 6.5 6.5 6.5 6.5 6.5 6.5 6.5 6.5 6.5 6.5 6.5 6.4 6.9 7.1 6.8 7.2 7.8 7.9 7.4 6.5 6.6 6.4 5.6 6.1 6.8 6.8 6.2 5.7 5.6 5.2 5.6 5.5 5.8 5.0 4.6 4.8 4.9 5.9 5.4 4.8 5.0 4.5 3.6 3.3 3.6 4.0 4.8 5.2
6.5 6.5 6.5 6.5 6.5 6.5 6.5 6.5 6.5 6.5 6.5 6.5 6.6 6.8 6.4 6.6 6.9 7.2 7.2 6.7 5.9 5.6 6.3 6.6 6.6 6.7 6.6 5.9 5.8 6.0 5.8 5.7 5.6 5.8 5.6 5.1 4.7 4.9 5.3 4.7 5.0 4.7 4.4 4.5 3.2 3.5 3.7 4.3 5.1
6.5 6.5 6.5 6.5 6.5 6.5 6.5 6.5 6.5 6.5 6.3 6.5 6.8 5.9 6.0 6.5 6.6 7.0 7.0 6.4 5.7 5.8 5.2 4.8 4.7 6.2 5.5 6.0 5.9 5.7 6.0 5.7 5.5 5.9 5.2 4.8 4.6 4.1 3.8 3.7 3.2 3.7 4.4 4.2 3.8 3.8 4.3 5.2 5.1
6.5 6.5 6.5 6.5 6.5 6.5 6.5 6.5 6.5 6.5 6.5 6.6 6.4 6.5 6.0 5.9 6.6 6.6 6.8 6.4 6.3 5.0 5.4 4.7 4.8 2.9 2.4 2.6 4.5 5.7 4.7 5.4 6.6 6.5 6.7 7.3 5.5 6.9 6.3 5.5 4.7 4.2 4.1 4.3 3.8 4.3 4.5 4.8 5.1
6.5 6.5 6.5 6.5 6.5 6.5 6.5 6.5 6.5 6.5 6.5 6.5 6.4 6.4 6.0 6.1 5.9 6.3 6.1 6.4 6.4 6.0 5.0 4.8 4.9 4.2 3.1 2.4 2.3 2.5 2.5 2.8 3.4 4.7 6.3 5.0 3.5 4.1 4.2 2.8 2.2 2.5 4.5 4.7 4.0 4.6 4.6 4.8 4.5
6.5 6.5 6.5 6.5 6.5 6.5 6.5 6.5 6.5 6.5 6.5 6.5 6.4 6.5 6.3 6.3 6.2 6.2 5.6 5.9 6.3 6.1 5.1 4.3 4.1 3.5 2.9 2.8 2.8 2.7 2.6 2.5 2.2 2.8 3.1 2.8 2.2 2.3 2.3 2.2 2.0 1.4 0.5 1.5 2.2 2.2 3.2 4.5 3.8
6.5 6.5 6.5 6.5 6.5 6.5 6.5 6.5 6.5 6.5 6.5 6.3 6.2 6.3 6.9 7.1 6.8 6.6 5.4 5.0 5.2 5.4 5.4 5.2 4.8 3.9 3.4 3.2 2.7 2.0 2.5 2.9 2.2 1.9 1.8 2.6 2.1 1.6 1.9 2.0 1.9 1.6 1.0 1.2 1.7 1.4 1.3 1.7 1.4
Wind_Speed
12 12 7 2 2 3 6 3 9 5 2 6 9 6 2 15 8 5 8 9 7 8 13 15 13 13 11 10 11 12 12 11 10 9 8 13 6 7 8 7 6 7 9 12 12 13 12 12 11
9 8 2 3 2 4 5 5 5 7 8 8 7 2 3 5 7 6 3 12 7 4 11 15 13 12 12 12 12 12 11 10 9 9 8 11 7 8 8 7 6 6 8 11 13 13 14 11 10
9 10 1 3 3 4 2 5 10 9 4 2 3 5 6 4 11 5 9 9 8 3 11 12 17 13 11 11 11 11 11 10 9 8 8 10 8 8 9 8 7 7 11 11 13 14 12 9 9
4 1 3 3 9 3 8 6 11 7 4 5 6 8 6 7 4 6 8 8 9 11 5 19 17 14 11 11 10 10 10 10 10 8 8 8 11 10 9 9 7 8 12 10 14 13 9 7 6
3 3 3 5 10 6 9 8 4 7 5 6 2 5 5 5 10 8 6 6 9 9 3 10 13 12 11 10 10 10 10 10 8 7 6 5 8 8 9 9 9 11 12 13 11 11 8 5 5
1 2 3 5 7 8 8 4 2 2 5 7 1 3 5 9 9 7 8 6 6 6 12 6 9 10 10 9 9 9 9 9 8 8 6 6 5 6 6 11 13 14 12 12 10 9 7 6 7
2 2 5 4 7 6 6 7 5 4 6 5 3 5 5 9 6 5 6 8 6 5 6 10 5 9 8 8 10 10 10 8 7 8 7 7 7 6 7 10 15 15 14 13 11 9 6 6 7
3 3 3 3 3 4 5 2 7 6 6 1 4 3 4 4 5 3 6 6 7 6 4 6 9 4 11 13 12 11 12 12 12 11 10 9 8 8 8 12 17 16 15 13 13 11 8 6 6
2 2 3 2 3 5 3 2 3 1 4 5 3 4 4 7 4 2 4 5 5 4 5 7 5 9 9 5 15 18 15 13 13 13 12 11 10 13 11 12 17 17 15 14 13 11 9 7 6
1 1 6 7 7 6 6 4 6 5 4 5 5 6 6 5 3 6 5 5 4 6 5 3 6 5 8 10 1 12 14 13 13 13 14 13 14 14 16 18 20 18 16 15 13 12 10 9 10
3 1 4 6 8 7 5 3 2 4 6 6 5 8 9 7 8 7 5 6 6 5 3 5 5 7 5 4 8 8 9 12 13 16 16 15 14 12 13 12 14 14 14 11 13 12 12 12 14
2 4 4 3 5 2 3 7 5 7 7 10 9 7 6 9 8 8 8 7 7 7 6 5 5 5 8 6 5 8 4 5 5 9 16 11 9 7 8 10 12 11 13 11 12 10 13 15 18
3 5 2 1 2 5 6 7 7 13 10 10 9 8 8 8 8 8 9 8 8 7 8 7 6 6 5 6 5 7 4 6 10 13 11 11 4 5 8 8 11 12 13 13 10 11 12 12 13
4 3 2 3 3 3 5 5 4 8 7 5 6 7 8 8 8 8 8 7 7 7 8 7 8 7 6 6 6 5 7 11 10 6 7 10 8 5 3 5 5 8 12 12 9 6 5 7 8
4 2 6 6 2 1 3 7 10 12 8 5 5 8 9 10 10 10 9 9 9 7 7 7 7 8 7 7 6 4 8 7 5 8 12 14 9 8 6 4 5 6 12 12 7 8 3 4 3
3 1 2 5 4 3 2 7 3 6 2 7 8 7 9 10 10 7 7 7 7 7 8 8 8 7 8 7 6 4 7 6 5 11 10 12 11 13 7 5 4 9 10 8 4 4 4 3 3
3 2 4 3 4 1 3 7 8 11 12 12 10 9 9 8 6 5 6 7 7 7 8 8 8 9 8 7 6 6 6 4 5 6 10 12 13 12 7 4 5 9 4 5 4 4 3 4 4
2 3 3 4 5 4 7 13 15 13 10 9 9 8 7 8 6 7 6 6 7 8 8 8 7 8 8 6 5 5 4 4 5 4 6 10 8 8 8 4 5 7 4 5 4 5 5 4 4
6 5 6 6 8 4 8 12 13 11 9 8 7 8 8 9 9 9 7 8 9 8 8 8 9 8 5 4 3 4 4 3 4 6 9 11 11 9 5 5 5 4 4 5 6 4 5 4 3
4 4 5 2 2 4 10 12 19 12 3 6 8 9 10 14 16 16 16 10 9 12 13 8 8 9 6 4 3 4 3 4 5 5 8 9 8 13 6 5 4 5 3 5 5 5 3 3 4
5 4 5 4 8 9 7 7 4 4 4 7 6 7 10 12 15 16 16 15 11 10 11 13 8 8 8 7 4 3 3 2 4 5 7 9 10 6 6 6 6 5 4 4 4 5 7 6 3
4 4 4 7 6 3 8 5 5 3 2 3 8 9 10 12 13 13 16 16 15 16 10 13 14 8 8 8 4 7 5 5 4 4 6 8 8 7 7 6 5 6 4 5 5 5 4 4 6
4 4 6 8 6 7 3 1 6 5 3 7 8 10 10 12 15 18 17 17 17 17 13 14 14 8 7 6 7 6 6 4 4 3 5 5 6 7 6 6 6 6 4 5 6 5 5 4 5
8 6 10 1 3 4 7 5 4 1 3 5 10 12 11 13 14 15 16 16 15 15 15 13 12 7 7 7 8 8 8 7 5 4 4 4 4 4 6 6 6 7 6 6 5 5 6 8 8
4 5 2 2 2 4 4 2 8 4 4 3 8 10 10 12 11 14 15 14 15 17 10 9 9 7 7 7 8 7 8 8 7 7 6 5 4 4 6 5 7 4 5 6 6 6 6 7 8
2 3 1 3 3 4 3 5 5 4 6 5 4 7 8 6 7 11 15 14 15 14 14 12 12 6 7 6 8 7 8 5 5 6 4 4 4 4 6 5 6 7 6 5 5 4 6 7 8
0 0 3 1 4 3 4 5 6 4 3 2 4 8 6 7 9 9 13 13 14 14 12 12 11 10 12 11 5 1 5 5 4 6 4 6 4 3 4 6 6 6 6 5 6 6 8 7 9
4 1 2 2 3 4 4 4 4 4 4 3 4 4 6 5 7 6 10 13 13 12 10 11 11 9 9 10 10 8 8 7 7 7 5 1 3 4 5 3 4 5 5 4 6 5 6 8 5
3 2 2 2 2 2 4 5 5 7 6 6 5 5 5 5 5 5 6 9 11 12 12 11 11 10 10 10 10 10 8 8 9 8 6 5 7 8 8 7 8 7 8 5 6 6 3 6 4
6 6 5 2 1 2 2 6 6 6 7 5 5 7 1 1 3 4 4 4 7 10 11 11 11 10 10 11 11 11 10 8 11 10 9 5 10 10 9 8 8 8 8 9 5 9 7 8 8
Wind_Direction
285 252 237 219 198 238 241 260 85 78 31 55 33 36 341 45 23 74 97 29 7 137 145 152 156 152 146 143 150 152 155 159 161 154 155 137 146 152 145 140 127 108 100 109 110 103 97 94 92
292 230 264 229 255 195 247 141 134 112 50 13 45 325 267 81 17 76 37 11 336 145 158 156 159 158 151 146 149 150 154 159 157 160 158 135 156 166 161 154 148 133 116 115 116 110 99 101 99
275 243 210 183 214 235 55 92 92 66 73 182 162 32 10 17 43 35 24 345 315 337 170 153 160 163 158 158 157 160 159 157 160 163 168 142 169 180 178 176 172 152 122 122 109 104 104 107 108
243 243 280 268 234 92 87 60 94 105 83 0 344 96 86 49 50 3 37 349 5 357 103 149 157 165 168 170 167 172 171 169 167 169 184 160 175 190 192 193 174 149 137 122 120 113 113 112 112
268 259 252 206 262 92 51 66 133 161 140 146 215 132 96 77 69 12 24 29 21 355 55 144 164 168 172 179 179 177 179 180 178 176 187 198 191 200 204 189 182 162 147 136 133 128 127 133 143
179 316 233 232 204 86 90 43 354 107 139 84 259 130 88 79 55 357 13 26 49 9 0 130 155 163 176 188 192 197 198 196 187 194 192 214 231 203 204 196 193 165 154 146 146 142 137 132 163
249 203 261 265 118 107 91 14 322 335 148 45 43 351 119 88 86 15 26 6 48 34 14 6 177 170 173 197 204 205 204 199 194 206 210 210 211 206 201 193 176 168 165 158 155 156 152 147 143
308 14 295 319 120 90 64 13 359 347 45 40 10 28 79 109 110 68 38 9 16 14 28 359 346 172 186 187 206 216 213 208 206 211 214 213 222 214 210 202 184 176 170 166 163 164 169 166 166
320 313 243 354 64 87 128 254 102 45 295 323 345 348 83 141 184 114 48 7 357 359 34 355 331 327 313 284 199 198 206 214 220 215 213 214 216 211 202 191 184 180 178 174 173 172 181 179 181
222 295 28 17 35 52 78 342 29 336 278 239 229 246 247 261 322 24 350 326 317 315 327 334 335 320 306 314 211 189 196 203 214 210 206 203 217 228 187 183 185 186 187 184 178 180 191 197 209
155 335 12 57 46 17 357 306 241 309 279 246 305 356 353 354 343 329 302 281 274 263 279 284 283 296 280 284 295 277 207 190 206 210 201 195 216 227 175 155 173 180 189 183 182 190 197 207 231
165 78 27 82 86 328 293 350 303 248 251 306 313 316 315 312 309 304 297 289 280 275 265 271 278 276 286 213 251 270 257 219 220 242 208 204 208 175 158 152 165 181 181 198 190 196 206 217 225
251 122 101 124 210 239 262 262 257 266 270 278 281 269 270 261 262 265 264 267 272 262 251 246 248 259 258 276 213 246 233 213 212 233 224 239 207 160 152 169 171 189 187 197 188 200 202 211 219
37 85 257 186 259 271 276 272 302 254 221 232 273 267 261 251 248 254 262 268 267 270 263 238 229 238 244 251 257 252 257 201 222 206 228 259 206 154 164 165 181 192 195 209 197 191 207 204 202
116 248 196 216 192 248 329 261 215 241 253 274 273 257 241 235 237 234 228 238 242 249 267 270 237 225 235 252 252 252 265 260 190 207 209 244 208 166 179 191 188 190 195 209 220 230 228 220 197
213 341 258 83 152 121 307 267 326 133 240 283 279 285 281 266 260 262 250 238 255 241 242 249 250 232 221 234 254 244 256 263 260 191 212 227 228 185 184 188 198 200 192 197 208 206 238 238 219
201 227 189 179 170 326 189 283 305 334 310 288 279 276 279 288 306 324 356 337 321 300 285 261 244 229 225 227 239 251 244 267 287 242 195 218 218 210 176 184 203 203 208 198 197 216 196 214 234
310 217 153 226 173 195 266 262 277 274 267 272 271 284 343 336 327 342 327 301 283 270 279 285 258 236 222 218 226 240 221 233 267 286 218 209 229 219 182 196 203 178 180 212 206 196 209 204 205
332 356 316 317 61 14 259 273 279 280 279 292 18 358 340 339 336 338 359 350 325 295 258 260 269 252 225 216 214 229 217 208 246 254 278 201 199 217 198 210 233 203 198 187 188 199 206 242 220
347 323 286 36 104 262 271 279 273 272 84 63 35 359 359 354 344 339 337 339 332 320 306 251 253 254 243 200 211 211 207 193 211 238 253 268 224 191 198 196 207 210 200 187 202 200 213 215 210
210 286 3 319 318 266 343 288 159 153 204 95 52 15 357 347 328 321 318 316 307 301 301 305 241 248 234 215 201 247 252 207 200 222 231 251 244 237 201 192 191 202 178 192 203 202 210 225 225
286 34 318 314 354 288 38 284 305 200 175 100 34 13 344 329 322 320 319 314 306 298 300 298 285 237 232 220 205 205 208 215 223 210 222 220 234 229 216 216 206 197 190 200 211 205 199 187 221
24 354 302 285 286 319 296 252 263 72 324 337 7 339 332 322 331 329 321 309 304 295 289 281 284 245 239 215 206 211 219 219 221 213 230 229 221 226 208 201 203 210 197 206 215 194 203 204 222
319 279 251 166 272 268 231 167 263 228 285 335 343 334 329 322 322 333 328 324 311 303 280 272 270 242 226 227 227 217 218 221 210 220 235 212 203 202 208 219 208 208 207 198 201 203 207 223 229
241 287 301 327 246 233 95 247 255 201 46 343 310 315 312 314 328 332 331 328 334 334 314 275 244 234 222 229 223 218 229 234 216 205 229 209 198 201 211 221 224 200 197 195 196 203 217 224 230
320 317 277 275 329 291 219 236 262 115 122 213 281 276 276 307 339 343 347 345 340 345 349 1 357 7 13 267 218 218 223 217 231 223 210 236 216 201 212 213 241 236 211 204 202 201 219 227 238
294 274 29 3 220 281 244 284 276 120 178 183 319 308 334 344 345 1 357 357 351 350 352 2 17 20 19 3 314 306 10 339 262 258 246 263 247 220 217 229 247 228 218 201 202 218 227 218 226
12 40 203 120 321 289 285 279 244 270 221 265 274 306 315 342 343 6 10 5 358 359 357 9 13 30 24 30 31 36 28 18 16 358 265 303 50 59 69 67 50 3 324 216 210 212 220 213 201
156 181 192 323 261 312 314 270 209 211 195 233 251 291 308 338 355 21 28 11 2 4 10 14 13 21 33 34 41 40 35 37 43 35 13 77 74 58 56 42 47 54 22 11 85 53 332 198 119
178 185 166 175 86 249 283 270 170 188 207 201 223 267 258 322 10 18 78 34 13 9 10 12 11 25 31 35 38 43 29 38 58 48 31 32 88 72 66 62 65 48 61 32 56 70 48 63 68